ORBCOMM FM 11

Satellite information

Favourite Embed

Satellite Type and Status

PAYLOADIN ORBIT

Key statistics

Satellite ORBCOMM FM 11 at a glance.

Uptime

10159

Days in orbit

Revolutions

≈ 14.5

Per day

Orbit

LEO

Low Earth Orbit

Inclination

45.0

Latest

Satellite identification and parameters

Extended collection of information and parameters for ORBCOMM FM 11.

Object identification

Identified? True

Debris? False

Object name: ORBCOMM FM 11

International designator: 1997-084C

Object number (NORAD): 25114

Object ID (CCSDS): 25114

Country: ORBITAL TELECOMMUNICATIONS SATELLITE (GLOBALSTAR) (ORB)

Current information (Y/N): Y

RCS size: MEDIUM

Orbital parameters

Period: 99.6 minutes

Inclination: 45.0118 deg

SMA: 7117.603 km

Apoapsis: 743.604 km

Periapsis: 735.333 km

RAAN: 151.6505 deg

Eccentricy: 0.00058102

Argument of periapsis: 100.5397 deg

Mean anomaly: 259.6109 deg

Mean motion: 14.45779619 rev/day

Mean motion (dot): 0.00002274 rev/day2

B* drag term: 0.00067524313 1/REarth

Two-line elements (TLE)

Creation date: Oct. 16, 2025, 2:37 a.m.

Reference frame: TEME

Reference center: EARTH

Epoch: Oct. 15, 2025, 9:42 p.m. UTC

TLE line 0: 0 ORBCOMM FM 11

TLE line 1: 1 25114U 97084C 25288.90459540 .00002274 00000-0 67524-3 0 9994

TLE line 2: 2 25114 45.0118 151.6505 0005810 100.5397 259.6109 14.45779619458941

Live tracking on map

Real-time ground track for satellite ORBCOMM FM 11.

In-orbit conjunctions

There are no conjunctions computed for ORBCOMM FM 11, at the moment. Check back to stay up to date, as we update our databases every day.

Go to all conjunctions

Associated space launch

ORBCOMM FM 11 was lifted into orbit during the mission ‘Pegasus XL HAPS | Orbcomm-A1 - A8’, on board a Pegasus XL HAPS space rocket.

The launch took place on Dec. 23, 1997, 7:11 p.m. from Wallops Flight Facility.

For more information about the launch, click the button.

Launch to space Pegasus XL HAPS | Orbcomm-A1 - A8
Pegasus XL HAPS | Orbcomm-A1 - A8

Agency: N/A

Status: Launch Successful

Launch date: Dec. 23, 1997, 7:11 p.m. UTC

Rocket: Pegasus XL HAPS

Launch pad: Wallops Flight Facility

Location: Air launch to orbit

...

Latest news about this satellite

There are no fresh news available about this satellite. Check back as we update our databases every day.


Newsletter sign-up

Weekly statistics, charts and insights to help you stay on top of the space industry.